GW3869 Weather Reports


time (UTC)temp
C
wind
direction
speed
KPH
gust
KPH
rain 1hr
cm
rain 24hr
cm
rain mn
cm
humidity
%
barometer
mb
20260503213424 16 187 8.0 17.7 0.00 0.00 0.00 35 1013.1
20260503212920 16 178 11.3 14.5 0.00 0.00 0.00 35 1013.2
20260503212417 16 197 14.5 19.3 0.00 0.00 0.00 34 1013.2
20260503211915 16 183 12.9 20.9 0.00 0.00 0.00 35 1013.2
20260503211412 16 178 9.7 14.5 0.00 0.00 0.00 33 1013.3
20260503210907 16 184 9.7 14.5 0.00 0.00 0.00 34 1013.4
20260503210404 16 183 14.5 19.3 0.00 0.00 0.00 34 1013.5
20260503205858 16 185 9.7 16.1 0.00 0.00 0.00 33 1013.7
20260503205355 16 172 8.0 16.1 0.00 0.00 0.00 33 1013.4
20260503204852 17 191 14.5 19.3 0.00 0.00 0.00 33 1013.4
20260503204349 17 180 12.9 16.1 0.00 0.00 0.00 34 1013.4
20260503203846 17 174 11.3 14.5 0.00 0.00 0.00 34 1013.8
20260503203344 17 158 11.3 19.3 0.00 0.00 0.00 34 1013.8
20260503202841 17 189 12.9 16.1 0.00 0.00 0.00 36 1013.4
20260503202339 17 175 11.3 14.5 0.00 0.00 0.00 31 1013.7
20260503201837 17 183 8.0 17.7 0.00 0.00 0.00 32 1014.1
20260503201333 17 186 12.9 19.3 0.00 0.00 0.00 35 1014.1
20260503200831 16 186 14.5 19.3 0.00 0.00 0.00 32 1014.1
20260503200326 17 161 9.7 16.1 0.00 0.00 0.00 33 1014.0
20260503195824 16 176 9.7 16.1 0.00 0.00 0.00 32 1014.2
20260503195320 16 192 12.9 17.7 0.00 0.00 0.00 33 1014.0
20260503194818 17 159 11.3 17.7 0.00 0.00 0.00 33 1014.3
20260503194314 17 184 12.9 16.1 0.00 0.00 0.00 33 1014.4
20260503193810 17 171 11.3 14.5 0.00 0.00 0.00 34 1014.6
20260503193306 17 191 11.3 12.9 0.00 0.00 0.00 34 1014.8
20260503192802 16 192 9.7 24.1 0.00 0.00 0.00 33 1014.8
20260503192257 16 194 14.5 17.7 0.00 0.00 0.00 33 1015.1
20260503191754 17 184 9.7 17.7 0.00 0.00 0.00 31 1015.0
20260503191251 17 188 8.0 12.9 0.00 0.00 0.00 36 1015.3
20260503190748 17 197 8.0 19.3 0.00 0.00 0.00 33 1015.5
20260503190245 16 196 12.9 19.3 0.00 0.00 0.00 32 1015.3
20260503185742 16 178 11.3 16.1 0.00 0.00 0.00 32 1015.3
20260503185238 17 187 14.5 17.7 0.00 0.00 0.00 32 1015.4
20260503184732 17 171 11.3 16.1 0.00 0.00 0.00 36 1015.4
20260503184224 17 179 17.7 17.7 0.00 0.00 0.00 34 1015.5
20260503183720 16 176 11.3 14.5 0.00 0.00 0.00 35 1015.6
20260503183217 17 153 17.7 17.7 0.00 0.00 0.00 32 1015.7
20260503182716 16 185 9.7 11.3 0.00 0.00 0.00 33 1015.6
20260503182214 17 182 11.3 12.9 0.00 0.00 0.00 34 1015.9
20260503181710 17 189 8.0 14.5 0.00 0.00 0.00 36 1015.8
20260503181207 17 184 8.0 11.3 0.00 0.00 0.00 36 1015.9
20260503180704 17 187 9.7 11.3 0.00 0.00 0.00 38 1015.9
20260503180203 17 187 14.5 19.3 0.00 0.00 0.00 31 1016.0
20260503175659 17 152 12.9 14.5 0.00 0.00 0.00 36 1016.1
20260503175156 16 174 9.7 17.7 0.00 0.00 0.00 34 1016.0
20260503174652 16 189 11.3 19.3 0.00 0.00 0.00 34 1016.2
20260503174150 16 140 11.3 20.9 0.00 0.00 0.00 33 1016.2
20260503173645 16 196 14.5 17.7 0.00 0.00 0.00 31 1016.5
20260503173141 16 192 12.9 14.5 0.00 0.00 0.00 34 1016.5
20260503172638 16 170 9.7 12.9 0.00 0.00 0.00 42 1016.4
20260503172136 16 189 9.7 12.9 0.00 0.00 0.00 34 1016.6
20260503171632 16 195 6.4 12.9 0.00 0.00 0.00 35 1016.8
20260503171130 15 168 8.0 9.7 0.00 0.00 0.00 38 1016.7
20260503170626 15 182 9.7 12.9 0.00 0.00 0.00 36 1016.9
20260503170123 16 153 19.3 19.3 0.00 0.00 0.00 35 1017.0
20260503150515 12 179 9.7 14.5 0.00 0.00 0.00 46 1018.5
20260503131407 6 146 9.7 12.9 0.00 0.00 0.00 70 1018.5
20260503130904 6 141 9.7 11.3 0.00 0.00 0.00 69 1018.6
20260503130402 6 152 9.7 11.3 0.00 0.00 0.00 71 1018.3
20260503110806 0 138 9.7 12.9 0.00 0.00 0.00 95 1018.0
20260503110303 0 138 9.7 12.9 0.00 0.00 0.00 95 1017.3
20260503100229 0 139 11.3 11.3 0.00 0.00 0.00 95 1017.1
20260503090153 0 132 11.3 11.3 0.00 0.00 0.00 94 1016.9
20260503081624 0 128 9.7 9.7 0.00 0.00 0.00 92 1016.9
20260503081121 1 128 9.7 9.7 0.00 0.00 0.00 92 1016.8
20260503080617 1 128 8.0 9.7 0.00 0.00 0.00 92 1017.0
20260503080114 1 132 9.7 11.3 0.00 0.00 0.00 92 1016.9
20260503072551 1 128 8.0 9.7 0.00 0.00 0.00 91 1016.7
20260503072048 1 125 9.7 9.7 0.00 0.00 0.00 90 1016.8
20260503071545 1 127 9.7 9.7 0.00 0.00 0.00 90 1016.7
20260503071042 1 128 8.0 9.7 0.00 0.00 0.00 90 1016.9
20260503070538 1 131 9.7 9.7 0.00 0.00 0.00 90 1016.7
20260503054957 2 130 8.0 9.7 0.00 0.00 0.00 86 1017.2
20260503054452 2 129 8.0 9.7 0.00 0.00 0.00 85 1017.3
20260503053950 2 126 8.0 9.7 0.00 0.00 0.00 85 1016.9
20260503053448 2 126 8.0 9.7 0.00 0.00 0.00 85 1017.1
20260503052944 2 128 8.0 9.7 0.00 0.00 0.00 84 1017.1
20260503052442 2 128 8.0 8.0 0.00 0.00 0.00 84 1017.4
20260503051938 2 125 9.7 9.7 0.00 0.00 0.00 84 1017.3
20260503051434 2 131 8.0 9.7 0.00 0.00 0.00 83 1017.3
20260503050931 2 127 8.0 9.7 0.00 0.00 0.00 83 1017.2
20260503050427 2 129 8.0 9.7 0.00 0.00 0.00 83 1017.1
20260503045925 2 121 9.7 9.7 0.00 0.00 0.00 82 1017.1
20260503045422 2 123 8.0 9.7 0.00 0.00 0.00 81 1017.2
20260503044919 2 134 8.0 9.7 0.00 0.00 0.00 80 1017.2
20260503044416 3 135 9.7 9.7 0.00 0.00 0.00 79 1017.0
20260503043914 3 130 9.7 11.3 0.00 0.00 0.00 77 1017.2
20260503043410 3 134 9.7 9.7 0.00 0.00 0.00 75 1017.1
20260503042906 3 129 8.0 9.7 0.00 0.00 0.00 74 1017.4
20260503042403 3 140 9.7 11.3 0.00 0.00 0.00 74 1017.3
20260503041859 3 139 8.0 9.7 0.00 0.00 0.00 72 1017.3
20260503041356 3 134 11.3 11.3 0.00 0.00 0.00 71 1017.1
20260503040854 3 129 8.0 9.7 0.00 0.00 0.00 71 1017.3
20260503040351 3 137 9.7 9.7 0.00 0.00 0.00 72 1017.2
20260503035848 3 134 8.0 9.7 0.00 0.00 0.00 72 1017.3
20260503035345 3 133 9.7 11.3 0.00 0.00 0.00 72 1017.5
20260503034842 3 135 8.0 9.7 0.00 0.00 0.00 72 1017.2
20260503034340 4 135 8.0 9.7 0.00 0.00 0.00 71 1017.5
20260503033837 4 139 8.0 9.7 0.00 0.00 0.00 70 1017.5
20260503033334 4 132 9.7 9.7 0.00 0.00 0.00 68 1017.6
20260503032832 4 133 9.7 9.7 0.00 0.00 0.00 66 1017.4
20260503032331 4 130 8.0 9.7 0.00 0.00 0.00 65 1017.4
20260503031828 5 125 8.0 9.7 0.00 0.00 0.00 64 1017.4
20260503031326 5 125 8.0 9.7 0.00 0.00 0.00 63 1017.2
20260503030822 5 130 8.0 9.7 0.00 0.00 0.00 63 1017.4
20260503030318 5 131 8.0 9.7 0.00 0.00 0.00 63 1017.3
20260503025815 5 122 8.0 9.7 0.00 0.00 0.00 62 1017.4
20260503025313 5 112 9.7 11.3 0.00 0.00 0.00 63 1017.3
20260503024809 5 133 8.0 12.9 0.00 0.00 0.00 63 1017.1
20260503024306 5 94 6.4 9.7 0.00 0.00 0.00 62 1017.0
20260503023803 5 109 8.0 9.7 0.00 0.00 0.00 63 1017.1
20260503023300 5 119 8.0 11.3 0.00 0.00 0.00 62 1017.2
20260503022757 5 134 8.0 9.7 0.00 0.00 0.00 62 1016.8
20260503022256 5 129 9.7 11.3 0.00 0.00 0.00 61 1016.9
20260503021753 6 135 8.0 8.0 0.00 0.00 0.00 61 1017.0
20260503021249 6 126 8.0 11.3 0.00 0.00 0.00 60 1017.1
20260503020747 6 118 9.7 11.3 0.00 0.00 0.00 59 1016.7
20260503020245 6 127 9.7 11.3 0.00 0.00 0.00 58 1016.7
20260503015741 6 121 9.7 9.7 0.00 0.00 0.00 59 1016.8
20260503015238 6 116 8.0 8.0 0.00 0.00 0.00 57 1016.8
20260503014733 6 114 8.0 9.7 0.00 0.00 0.00 56 1016.8
20260503014232 7 124 8.0 8.0 0.00 0.00 0.00 57 1016.6
20260503013729 7 102 9.7 9.7 0.00 0.00 0.00 56 1016.3
20260503013226 7 121 8.0 11.3 0.00 0.00 0.00 56 1016.3
20260503012724 7 117 4.8 9.7 0.00 0.00 0.00 55 1016.1
20260503012220 7 118 8.0 8.0 0.00 0.00 0.00 56 1016.4
20260503011717 7 105 6.4 8.0 0.00 0.00 0.00 54 1016.3
20260503011214 7 117 6.4 11.3 0.00 0.00 0.00 54 1016.2
20260503010710 7 112 6.4 9.7 0.00 0.00 0.00 55 1016.3
20260503010207 7 110 8.0 8.0 0.00 0.00 0.00 54 1016.2
20260503005705 7 126 11.3 11.3 0.00 0.00 0.00 54 1015.9
20260503005202 7 118 6.4 8.0 0.00 0.00 0.00 54 1015.9
20260503004658 7 125 8.0 9.7 0.00 0.00 0.00 52 1015.8
20260503004156 8 94 4.8 8.0 0.00 0.00 0.00 51 1015.9
20260503003653 8 123 6.4 9.7 0.00 0.00 0.00 51 1015.9
20260503003150 8 112 6.4 8.0 0.00 0.00 0.00 50 1016.0
20260503002647 8 100 4.8 8.0 0.00 0.00 0.00 49 1015.5
20260503002144 8 102 6.4 8.0 0.00 0.00 0.00 47 1015.6
20260503001639 9 100 6.4 6.4 0.00 0.00 0.00 48 1015.6
20260503001137 9 117 6.4 9.7 0.00 0.00 0.00 47 1015.5
20260503000634 10 123 4.8 9.7 0.00 0.00 0.00 48 1015.6
20260503000132 10 122 6.4 6.4 0.00 0.00 0.00 49 1015.8
20260502235628 10 122 8.0 12.9 0.00 0.00 0.00 44 1015.5
20260502235126 10 121 9.7 11.3 0.00 0.00 0.00 44 1015.4
20260502234621 10 59 8.0 14.5 0.00 0.00 0.00 45 1015.4
20260502234120 10 132 8.0 9.7 0.00 0.00 0.00 44 1015.3
20260502233615 10 95 6.4 11.3 0.00 0.00 0.00 40 1015.4
20260502233112 10 126 4.8 9.7 0.00 0.00 0.00 42 1015.3
20260502232608 10 132 8.0 14.5 0.00 0.00 0.00 43 1015.3
20260502232106 11 88 4.8 9.7 0.00 0.00 0.00 42 1015.4
20260502231602 11 131 4.8 19.3 0.00 0.00 0.00 43 1015.3
20260502231100 11 97 3.2 9.7 0.00 0.00 0.00 39 1015.1
20260502230558 11 100 8.0 12.9 0.00 0.00 0.00 44 1015.2
20260502230056 11 129 6.4 11.3 0.00 0.00 0.00 40 1015.3
20260502225551 11 95 6.4 9.7 0.00 0.00 0.00 44 1015.1
20260502225049 11 158 6.4 9.7 0.00 0.00 0.00 38 1015.1
20260502224545 11 80 6.4 9.7 0.00 0.00 0.00 38 1015.0
20260502224042 11 100 4.8 12.9 0.00 0.00 0.00 38 1015.1
20260502223540 11 106 6.4 9.7 0.00 0.00 0.00 42 1015.1
20260502223038 12 119 4.8 12.9 0.00 0.00 0.00 37 1015.3
20260502222535 12 148 8.0 8.0 0.00 0.00 0.00 41 1015.0
20260502222031 12 80 4.8 14.5 0.00 0.00 0.00 42 1015.2
20260502221527 11 92 4.8 9.7 0.00 0.00 0.00 41 1015.3
20260502221025 12 70 4.8 8.0 0.00 0.00 0.00 37 1015.0
20260502220520 12 78 4.8 8.0 0.00 0.00 0.00 37 1014.9
20260502220017 12 154 4.8 9.7 0.00 0.00 0.00 43 1015.0
20260502215514 12 143 3.2 8.0 0.00 0.00 0.00 39 1015.0
20260502215011 12 85 9.7 14.5 0.00 0.00 0.00 35 1014.7
20260502214508 13 80 4.8 8.0 0.00 0.00 0.00 37 1014.9
20260502214006 13 106 8.0 12.9 0.00 0.00 0.00 37 1014.7